カタログに戻る

METEOR 2-6 DEB

運用中PO
NORAD 45502·DEBRIS·🇷🇺 Russia

打ち上げ Sep 9, 1980 から Plesetsk Cosmodrome

Loading…

次のパス (今後24時間)

TLE

経年Source: Space-Track

元期: Sep 6, 2026, 20:57 UTC

1 45502U 80073W   26249.87314588  .00001518  00000-0  50155-3 0  9995
2 45502  81.2085 308.5204 0041115  59.0987 301.4231 14.37144075612395

AllMySatでMETEOR 2-6 DEBをリアルタイム追跡

Download on the App Store